Regional Weather Roundup
Issued by NWS Grand Forks, ND

Home | Current Version | Previous Version | Text Only | Print | Product List | Glossary Off
Versions: 1 2 3 4 5 6 7 8 9 10 11 12 13 14 15 16 17 18 19 20 21 22 23 24 25 26 27 28 29 30 31 32 33 34 35 36 37 38 39 40 41 42 43 44 45 46 47 48 49 50

392
ASUS43 KFGF 211510
RWRFGF
PRAIRIE TO PINES  WEATHER ROUNDUP
NATIONAL WEATHER SERVICE EASTERN NORTH DAKOTA/GRAND FORKS ND
900 AM CST TUE NOV 21 2017

 **SATELLITE DATA USED TO AUGMENT SKY COVER AT AUTOMATED STATIONS**
 *****  WEATHER ACROSS EASTERN NORTH DAKOTA  *****

CITY           SKY/WX    TMP DP  RH WIND       PRES   REMARKS
GRAND FORKS    FAIR      13   8  81 NW16      30.20R WCI  -3
GRAND FRKS AFB FAIR      12   4  71 NW13      30.22R WCI  -3
DEVILS LAKE    FAIR      11   5  77 NW17      30.24R WCI  -6
FARGO          PTSUNNY   16   7  67 NW21G33   30.19R WCI  -1
WAHPETON ARPT  NOT AVBL
$$

 ***** WEATHER ACROSS CENTRAL AND WESTERN NORTH DAKOTA  *****

CITY           SKY/WX    TMP DP  RH WIND       PRES   REMARKS
BISMARCK       MOCLDY    17   5  59 NW15G24   30.35R WCI   2
MINOT          LGT SNOW   8   2  76 W18       30.32R WCI -11
JAMESTOWN      FAIR      12   6  77 NW20G29   30.23R WCI  -6
MINOT AFB      LGT SNOW   8   2  78 NW17      30.31R FOG     WCI -10
GARRISON         N/A      7   1  76 NW17      30.31R WCI -12
WILLISTON      CLOUDY     5  -1  76 W12       30.38R WCI -11
DICKINSON      FAIR       4  -2  76 W20       30.29R WCI -17
HETTINGER      FAIR       6  -2  69 NW17      30.32R WCI -13
$$

 *****  OTHER AIRPORT OBSERVATIONS IN OUR AREA  *****

CITY           SKY/WX    TMP DP  RH WIND       PRES   REMARKS
WALHALLA       FAIR      14   9  79 NW16      30.21R WCI  -2
GRAFTON AIRPOR FAIR      12   7  79 NW16      30.23R WCI  -4
VALLEY CITY AR FLURRIES  12   9  85 NW21      30.23R WCI  -6
CANDO          FAIR      12   5  73 NW15      30.25R WCI  -4
CAVALIER APRT  FAIR      12   7  79 NW16      30.20R WCI  -4
GWINNER          N/A     16   9  73 NW20G28   30.22R WCI  -1
SHEYENNE NWR     N/A     17   6  62 N15       29.95S WCI   2
ROLLA          FAIR       9   3  78 NW22      30.22R WCI -11
 ***** THE ABOVE OBSERVATIONS ARE NON NWS ARE NOT QUALITY
       CONTROLLED AND MAY MIS-REPORT RAIN FOR SNOW...
$$

  *****  WEATHER ACROSS NORTHERN MINNESOTA  *****

CITY           SKY/WX    TMP DP  RH WIND       PRES   REMARKS
FLAG ISLAND    LGT SNOW  12   9  85 NW23      30.03R WCI  -7
WARROAD        LGT SNOW  14   9  79 W14G20    30.07R WCI  -1
ROSEAU         LGT SNOW  16   9  73 NW13G21   30.09R WCI   2
HALLOCK        FLURRIES  12   9  85 NW17      30.18R WCI  -5
THF RVR FALLS  FLURRIES  12   7  80 NW23      30.14R WCI  -7
BAUDETTE       CLOUDY    13   8  81 NW22G36   30.01R WCI  -6
WASKISH        FAIR      14   9  79 NW14G22   30.03R WCI  -1
CROOKSTON      MOCLDY    12   9  85 N21G29    30.18R WCI  -6
STEPHEN NDAWN    N/A     12   7  79 N15         N/A  WCI  -4
GREENBUSH NDAW   N/A     12   7  79 NW20        N/A  WCI  -6
$$
  *****  WEATHER ACROSS CENTRAL AND WEST MINNESOTA  *****

CITY           SKY/WX    TMP DP  RH WIND       PRES   REMARKS
FOSSTON        FLURRIES  10   5  79 NW16G24   30.11R WCI  -7
BEMIDJI        FLURRIES  13   8  79 NW20      30.03R WCI  -5
PARK RAPIDS    MIX PCPN  14   6  70 NW22G30   30.02R WCI  -4
ELBOW LAKE     PTSUNNY   15   9  76 NW21G31   30.12R HAZE    WCI  -3
WADENA         FLURRIES  12   7  79 NW18G29   30.04R WCI  -5
DETROIT LAKES  LGT SNOW  14  10  85 NW23G30   30.11R WCI  -5
MOORHEAD       FAIR      14   7  73 N22G30    30.18R WCI  -4
FERGUS FALLS   FLURRIES  14   9  79 N22G30    30.17R WCI  -4
MORRIS MN      FLURRIES  18   9  68 NW26G35   30.11R WCI  -1
STAPLES        CLOUDY    16   7  67 NW20G29   30.02R WCI  -1
$$
  *****  WEATHER ELSEWHERE ACROSS MINNESOTA  *****

CITY           SKY/WX    TMP DP  RH WIND       PRES   REMARKS
DULUTH         FLURRIES  19  10  68 NW15G24   29.83R WCI   5
INTRNTL FALLS    N/A     14   6  70 NW16      29.95R WCI  -2
ELY            FLURRIES  16   7  67 NW16G28   29.82R WCI   0
CLOQUET        FLURRIES  19  10  68 NW12G24   29.87R WCI   7
WHEATON        FAIR      18   7  62 NW23G33   30.19R WCI   0
BRAINERD       FLURRIES  19   8  62 NW21G32   29.99R WCI   3
HIBBING        MIX PCPN  16   8  71 NW26G35   29.89R WCI  -3
ALEXANDRIA     FLURRIES  17  10  74 NW20G29   30.06R WCI   1
SAINT CLOUD    FLURRIES  19  11  70 NW25G32   30.00R WCI   1
MINNEAPOLIS    FAIR      23  11  60 NW22G28   29.98R WCI   8
$$

  *****  WEATHER ACROSS SOUTH DAKOTA  *****

CITY           SKY/WX    TMP DP  RH WIND       PRES   REMARKS
SIOUX FALLS    FAIR      20   9  62 NW25G33   30.17R WCI   2
BROOKINGS      FLURRIES  17   9  70 NW22G33   30.15R WCI   0
WATERTOWN      CLOUDY    15   8  73 NW28G37   30.15R WCI  -5
HURON          FAIR      16   6  65 NW23G33   30.27R WCI  -2
SISSETON         N/A     18   9  68 NW25G33   30.18R WCI   0
ABERDEEN       FAIR      14   6  70 NW20G29   30.28R WCI  -3
MITCHELL       FAIR      18   7  62 NW25G38   30.28R WCI   0
PIERRE         FAIR      14   5  67 NW18      30.32R WCI  -3
MOBRIDGE       MOCLDY    13   4  67 NW24      30.29R WCI  -7
RAPID CITY     CLOUDY    22  18  85 N6        30.28R WCI  14
$$

  *****  SOME WEATHER IN NEARBY STATES *****

CITY           SKY/WX    TMP DP  RH WIND       PRES   REMARKS
GLASGOW MT     FAIR       2  -3  80 SW5       30.38R WCI  -8
GREAT FALLS MT FAIR      15  13  91 CALM      30.16R
CHEYENNE WY    MOCLDY    34  30  85 N10       30.23R
SCOTTSBLUFF NE CLOUDY    32  24  72 N3        30.27R
OMAHA NE       PTSUNNY   39  17  41 NW30G36   30.07R
DES MOINES IA  PTSUNNY   40  21  46 NW21G31   29.97R
DAVENPORT IA   MIX PCPN  36  28  73 NW9       29.89R
CHICAGO IL     LGT RAIN  44  32  62 W14       29.74R
EAU CLAIRE WI  CLOUDY    26  12  55 NW20      29.85R WCI  12
LA CROSSE WI   CLOUDY    32  16  51 NW25G32   29.85R WCI  19
$$

  *****  SOME NATIONAL WEATHER *****

CITY           SKY/WX    TMP DP  RH WIND       PRES   REMARKS
LA GUARDIA NY  FAIR      52  31  44 S15       30.12F
RALEIGH NC     PTSUNNY   50  37  61 CALM      30.22S
ATLANTA GA     PTSUNNY   52  43  71 E9        30.13F
NEW ORLEANS LA FAIR      65  55  70 E7        30.03R
OKLAHOMA CITY  PTSUNNY   47  35  63 CALM      29.90R
ALBUQUERQUE NM CLOUDY    46   6  19 N10       30.22S
SALT LAKE CITY MOCLDY    44  39  82 NW3       30.30R
LOS ANGELES CA MOCLDY    64  38  38 E3        30.05R
BOISE ID       MOCLDY    43  41  93 E3        30.22S
SEATTLE WA     LGT RAIN  42  41  96 N7        29.97F FOG
$$

*** WEATHER ACROSS MANITOBA...SASKATCHEWAN AND ONTARIO ***
                ***ONTARIO***

CITY           SKY/WX    TMP DP  RH WIND       PRES   REMARKS
GERALDTON      LGT SNOW  12   9  85 NW9G30    29.51R VSB 3/4 WCI   0
THUNDER BAY    PTSUNNY   18   9  68 NW18G29   29.70R WCI   2
SIOUX LOOKOUT  FLURRIES  10   5  79 NW10G20   29.85R WCI  -3
TORONTO        PTSUNNY   48  32  53 SW22G29   29.67S
BIG TROUT LK   FLURRIES  12   9  85 NW15      29.67S WCI  -4
PICKLE LAKE    LGT SNOW  10   7  85 NW13G25   29.70R DRFTSNOWWCI  -5
DRYDEN         FLURRIES  10   7  85 NW10      29.89R WCI  -3
KENORA         LGT SNOW  10   7  85 NW10G17   29.98R DRFTSNOWWCI  -3
$$
                *** MANITOBA***

CITY           SKY/WX    TMP DP  RH WIND       PRES   REMARKS
BRANDON        PTCLDY     7   1  78 NW13G20   30.24R WCI  -9
DAUPHIN        CLEAR      9   5  85 W18       30.23R WCI -10
ISLAND LAKE    FLURRIES  12   9  85 NW18G26   29.89R WCI  -5
PILOT MOUND      N/A      9   3  78 NW16        N/A  WCI  -9
THE PAS        MOCLDY     5   0  78 W15       30.17S WCI -13
THOMPSON       MOCLDY     9   3  78 NW18      29.98R WCI -10
WINNIPEG       CLOUDY    12   7  79 NW17      30.17R WCI  -5
LYNN LAKE      CLEAR      1  -2  85 NW15G22   30.07R WCI -18
CHURCHILL      SNOW      14  12  92 NW31G47   29.67S VSB 1/2 WCI  -7
$$
                ***SASKATCHEWAN***

CITY           SKY/WX    TMP DP  RH WIND       PRES   REMARKS
ESTEVAN        FLURRIES   5   0  78 NW13      30.32R WCI -12
KINDERSLEY     PTCLDY   -11 -17  77 W5        30.32R WCI -23
LLOYDMINSTER   FLURRIES   1  -4  78 W7        30.29R WCI -11
PRINCE ALBERT  MOCLDY     3  -2  78 W7        30.35R WCI  -9
REGINA         CLOUDY     3  -2  78 W13       30.34R WCI -14
YORKTON        CLOUDY    10   5  79 NW17      30.26R WCI  -7
N. BATTLEFORD  CLOUDY     1  -6  71 W5        30.37R WCI  -8
LA RONGE       PTCLDY    -2  -6  84 W8        30.30R WCI -17
SASKATOON      FLURRIES   1  -4  78 W9        30.36R WCI -14
SWIFT CURRENT  CLEAR     -6 -13  71 W7        30.26R WCI -20
$$
NOTE: THESE ARE AUTOMATED STATIONS WITH LIMITED QUALITY CONTROL
      "FAIR" INDICATES FEW OR NO CLOUDS BELOW 12,000 FEET WITH NO
      SIGNIFICANT WEATHER AND/OR OBSTRUCTIONS TO VISIBILITY.
      SKY/WX - SKY CONDITION AND SIGNIFICANT WEATHER.
      TMP - AIR TEMPERATURE.    DP   - DEWPOINT TEMPERATURE.
      RH  - RELATIVE HUMIDITY.  PRES - PRESSURE.
      HX  - HEAT INDEX.         WCI  - WIND CHILL INDEX.
$




USA.gov is the U.S. government's official web portal to all federal, state and local government web resources and services.